Weather History for Erie, CO

Change the Weather History Date:

Sunday, February 9, 2014

  Actual Average (KBJC) Record (KBJC)
Temperature  
Mean Temperature 18 °F -  
Max Temperature 21 °F 43 °F 66 °F (1987)
Min Temperature 15 °F 23 °F -5 °F (2001)
Degree Days  
Heating Degree Days 47    
Moisture  
Dew Point 18 °F    
Average Humidity 96    
Maximum Humidity 98    
Minimum Humidity 93    
Precipitation  
Precipitation 0.00 in - - ()
Sea Level Pressure  
Sea Level Pressure 29.98 in    
Wind  
Wind Speed 4 mph (NE)    
Max Wind Speed 10 mph    
Max Gust Speed -    
Visibility 2 miles    
Events Fog    
Averages and records for this station are not official NWS values.
T = Trace of Precipitation, MM = Missing Value Source: NWS Daily Summary

Daily Weather History Graph

Daily Weather History Graph

Search for Another Location

Airport:

Trip Planner

Search our weather history database for the weather conditions in past years. The results will help you decide how hot, cold, wet, or windy it might be!

Date:

Astronomy

Feb. 09, 2014 Rise Set
Actual Time 7:00 AM MST 5:29 PM MST
Civil Twilight 6:32 AM MST 5:57 PM MST
Nautical Twilight 6:00 AM MST 6:29 PM MST
Astronomical Twilight 5:28 AM MST 7:00 PM MST
Moon 1:11 PM MST (2/9) 3:07 AM MST (2/9)
Length of Visible Light 11h 25m
Length of Day
10h 28m
Waxing Gibbous, 77% of the Moon is Illuminated
Feb 9
Waxing Gibbous
Feb 14
Full
Feb 22
Last Quarter
Mar 1
New
Mar 8
First Quarter

Hourly Weather History & Observations

Time (MST) Temp. Windchill Dew Point Humidity Pressure Visibility Wind Dir Wind Speed Gust Speed Precip Events Conditions
12:14 AM 21.7 °F 17.0 °F 19.9 °F 93% 30.03 in 5.0 mi NE 3.5 mph - N/A   Overcast
12:34 AM 21.2 °F 14.9 °F 19.8 °F 94% 30.02 in 5.0 mi NE 4.6 mph - N/A   Overcast
12:54 AM 21.2 °F 16.4 °F 19.9 °F 95% 30.01 in 5.0 mi NE 3.5 mph - N/A   Overcast
1:14 AM 20.8 °F 13.2 °F 19.8 °F 96% 30.00 in 4.0 mi ENE 5.8 mph - N/A   Overcast
1:34 AM 20.3 °F 13.8 °F 19.4 °F 96% 29.99 in 3.0 mi ENE 4.6 mph - N/A   Overcast
1:54 AM 20.1 °F 12.3 °F 19.4 °F 97% 29.98 in 2.0 mi East 5.8 mph - N/A   Overcast
2:14 AM 19.9 °F 12.1 °F 19.2 °F 97% 29.98 in 2.0 mi East 5.8 mph - N/A   Overcast
2:34 AM 19.4 °F 14.3 °F 18.5 °F 96% 29.98 in 3.0 mi East 3.5 mph - N/A   Overcast
2:54 AM 19.8 °F 14.7 °F 18.9 °F 96% 29.97 in 2.0 mi East 3.5 mph - N/A   Overcast
3:14 AM 19.8 °F 14.7 °F 19.0 °F 97% 29.96 in 1.2 mi East 3.5 mph - N/A   Overcast
3:34 AM 19.9 °F 14.9 °F 19.0 °F 96% 29.97 in 1.2 mi ENE 3.5 mph - N/A   Overcast
3:54 AM 19.9 °F 14.9 °F 19.2 °F 97% 29.98 in 1.8 mi ENE 3.5 mph - N/A   Overcast
4:14 AM 19.9 °F 12.1 °F 19.2 °F 97% 29.95 in 1.8 mi SE 5.8 mph - N/A   Overcast
4:34 AM 19.9 °F - 19.2 °F 97% 29.96 in 1.5 mi Calm Calm - N/A   Overcast
4:54 AM 20.1 °F - 19.4 °F 97% 29.97 in 2.0 mi Calm Calm - N/A   Overcast
5:14 AM 20.3 °F - 19.8 °F 98% 29.96 in 2.5 mi Calm Calm - N/A   Overcast
5:34 AM 20.3 °F 10.6 °F 19.4 °F 96% 29.96 in 2.5 mi NE 8.1 mph - N/A   Overcast
5:54 AM 19.2 °F 14.1 °F 18.3 °F 96% 29.96 in 1.5 mi East 3.5 mph - N/A   Overcast
6:14 AM 19.4 °F - 18.5 °F 96% 29.96 in 1.0 mi Calm Calm - N/A   Overcast
6:34 AM 19.4 °F - 18.7 °F 97% 29.94 in 1.2 mi Calm Calm - N/A   Overcast
6:54 AM 19.8 °F - 19.0 °F 97% 29.94 in 1.2 mi Calm Calm - N/A   Overcast
7:14 AM 20.1 °F - 19.4 °F 97% 29.94 in 0.8 mi Calm Calm - N/A   Overcast
7:34 AM 20.3 °F - 19.6 °F 97% 29.94 in 0.8 mi Calm Calm - N/A   Overcast
7:54 AM 20.5 °F 15.6 °F 19.8 °F 97% 29.95 in 0.5 mi NNE 3.5 mph - N/A Fog Light Freezing Fog
8:14 AM 20.3 °F 12.5 °F 19.6 °F 97% 29.95 in 0.5 mi NNE 5.8 mph - N/A Fog Light Freezing Fog
8:34 AM 20.3 °F 11.5 °F 19.4 °F 96% 29.97 in 0.5 mi North 6.9 mph - N/A Fog Light Freezing Fog
8:54 AM 20.7 °F 11.9 °F 19.9 °F 97% 29.97 in 0.5 mi NNE 6.9 mph - N/A Fog Light Freezing Fog
9:14 AM 20.8 °F 12.1 °F 20.1 °F 97% 29.97 in 0.5 mi NNE 6.9 mph - N/A Fog Light Freezing Fog
9:34 AM 20.8 °F 14.4 °F 20.3 °F 98% 29.97 in 1.0 mi NNE 4.6 mph - N/A   Overcast
9:54 AM 20.8 °F 14.4 °F 20.1 °F 97% 29.97 in 1.2 mi NNE 4.6 mph - N/A   Overcast
10:14 AM 20.8 °F 13.2 °F 20.1 °F 97% 29.96 in 1.2 mi NE 5.8 mph - N/A   Overcast
10:34 AM 21.2 °F - 20.5 °F 97% 29.96 in 1.8 mi Calm Calm - N/A   Overcast
10:54 AM 21.2 °F 13.6 °F 20.3 °F 96% 29.97 in 1.8 mi North 5.8 mph - N/A   Overcast
11:14 AM 21.2 °F 11.7 °F 20.3 °F 96% 29.97 in 1.8 mi North 8.1 mph - N/A   Overcast
11:34 AM 21.2 °F 10.9 °F 20.3 °F 96% 29.97 in 2.0 mi North 9.2 mph - N/A   Overcast
11:54 AM 20.7 °F 11.9 °F 19.9 °F 97% 29.95 in 1.8 mi NE 6.9 mph - N/A   Overcast
12:14 PM 20.7 °F 11.9 °F 19.9 °F 97% 29.95 in 1.2 mi NNE 6.9 mph - N/A   Overcast
12:34 PM 20.5 °F 15.6 °F 19.8 °F 97% 29.94 in 1.8 mi North 3.5 mph - N/A   Overcast
12:54 PM 20.7 °F 13.0 °F 19.9 °F 97% 29.93 in 2.0 mi NNE 5.8 mph - N/A   Overcast
1:14 PM 20.7 °F 14.2 °F 19.9 °F 97% 29.94 in 2.5 mi North 4.6 mph - N/A   Overcast
1:34 PM 20.7 °F 13.0 °F 19.9 °F 97% 29.94 in 2.0 mi NNE 5.8 mph - N/A   Overcast
1:54 PM 20.7 °F 11.9 °F 19.9 °F 97% 29.94 in 2.5 mi North 6.9 mph - N/A   Overcast
2:14 PM 20.5 °F 14.0 °F 19.8 °F 97% 29.94 in 3.0 mi NNE 4.6 mph - N/A   Overcast
2:34 PM 20.3 °F 15.4 °F 19.4 °F 96% 29.94 in 3.0 mi NNE 3.5 mph - N/A   Overcast
2:54 PM 20.5 °F - 19.6 °F 96% 29.95 in 3.0 mi Calm Calm - N/A   Overcast
3:14 PM 20.8 °F 16.0 °F 20.1 °F 97% 29.97 in 3.0 mi NNW 3.5 mph - N/A   Overcast
3:34 PM 21.2 °F - 20.1 °F 96% 29.97 in 3.0 mi Calm Calm - N/A   Overcast
3:54 PM 21.2 °F - 20.1 °F 96% 29.98 in 3.0 mi Calm Calm - N/A   Overcast
4:14 PM 21.0 °F - 19.6 °F 94% 29.98 in 3.0 mi Calm Calm - N/A   Overcast
4:34 PM 20.8 °F 13.2 °F 19.4 °F 94% 29.98 in 4.0 mi North 5.8 mph - N/A   Overcast
4:54 PM 19.6 °F 13.0 °F 18.5 °F 96% 29.99 in 4.0 mi NE 4.6 mph - N/A   Overcast
5:14 PM 19.4 °F 14.3 °F 18.0 °F 94% 29.99 in 4.0 mi NE 3.5 mph - N/A   Overcast
5:34 PM 19.2 °F 11.3 °F 17.8 °F 94% 30.00 in 4.0 mi NE 5.8 mph - N/A   Overcast
5:54 PM 17.8 °F 8.5 °F 16.7 °F 96% 30.01 in 5.0 mi NNE 6.9 mph - N/A   Overcast
6:14 PM 17.4 °F 8.0 °F 16.5 °F 96% 30.01 in 4.0 mi NE 6.9 mph - N/A   Overcast
6:34 PM 16.7 °F 7.2 °F 15.8 °F 96% 30.03 in 4.0 mi NNE 6.9 mph - N/A   Overcast
6:54 PM 16.5 °F 8.1 °F 15.4 °F 96% 30.03 in 4.0 mi NE 5.8 mph - N/A   Overcast
7:14 PM 16.2 °F 9.0 °F 14.9 °F 95% 30.03 in 3.0 mi NNE 4.6 mph - N/A   Overcast
7:34 PM 16.0 °F 10.4 °F 14.9 °F 95% 30.07 in 2.5 mi North 3.5 mph - N/A   Overcast
7:54 PM 15.8 °F 10.2 °F 14.5 °F 95% 30.05 in 2.5 mi NNE 3.5 mph - N/A   Overcast
8:14 PM 15.6 °F - 14.4 °F 95% 30.05 in 2.5 mi Calm Calm - N/A   Overcast
8:34 PM 15.8 °F - 14.9 °F 96% 30.03 in 1.2 mi Calm Calm - N/A   Overcast
8:54 PM 16.3 °F - 15.3 °F 96% 30.05 in 2.0 mi Calm Calm - N/A   Overcast
9:14 PM 16.7 °F 8.3 °F 15.6 °F 96% 30.03 in 2.5 mi SSW 5.8 mph - N/A   Overcast
9:34 PM 16.9 °F - 15.8 °F 96% 30.03 in 3.0 mi Calm Calm - N/A   Overcast
9:54 PM 17.4 °F - 16.5 °F 96% 30.04 in 4.0 mi Calm Calm - N/A   Overcast
10:14 PM 17.4 °F - 16.5 °F 96% 30.04 in 3.0 mi Calm Calm - N/A   Overcast
10:34 PM 18.0 °F 12.7 °F 16.7 °F 95% 30.03 in 3.0 mi NNE 3.5 mph - N/A   Overcast
10:54 PM 17.6 °F 10.7 °F 16.7 °F 96% 30.03 in 3.0 mi NNE 4.6 mph - N/A   Overcast
11:14 PM 16.7 °F 6.2 °F 15.6 °F 96% 30.03 in 3.0 mi NNE 8.1 mph - N/A   Overcast
11:34 PM 16.0 °F 3.6 °F 14.7 °F 95% 30.04 in 2.0 mi North 10.4 mph - N/A   Overcast
11:54 PM 15.1 °F 5.2 °F 14.0 °F 95% 30.05 in 1.2 mi North 6.9 mph - N/A   Overcast